Home   Weather   Moreno Valley   Past weeks

Flag for USA Past Weather in Moreno Valley, California, USA — Yesterday and Last 2 Weeks

Now
68 °F

Clear.


Feels Like: 68 °F
Forecast: 49 / 82 °F
Wind: 16 mph from Northeast

Location: Riverside / March Air Force Base

Current Time: Apr 29, 2017 at 12:36:49 am

Latest Report: Apr 28, 2017 at 11:58 pm


Visibility: 10 mi

Pressure: 29.84 "Hg

Humidity: 9%

Dew Point: 7 °F

Location of Moreno ValleyLocation

Past Weather in Moreno Valley — Graph

°F

Moreno Valley Temperature Yesterday

Maximum temperature yesterday: 79 °F (at 1:58 pm)
Minimum temperature yesterday: 50 °F (at 4:58 am)
Average temperature yesterday: 67 °F

High & Low Weather Summary for the Past Weeks

 TemperatureHumidityPressure
High92 °F (Apr 22, 2:58 pm)100% (Apr 14, 4:58 am)30.13 "Hg (Apr 14, 4:58 am)
Low38 °F (Apr 15, 4:58 am)8% (Apr 21, 11:58 am)29.69 "Hg (Apr 28, 4:58 pm)
Average62 °F61%29.93 "Hg
* Reported Apr 13 10:58 pm — Apr 28 10:58 pm, Moreno Valley, Weather by CustomWeather, © 2017

Note: Actual official high and low records may vary slightly from our data, if they occured in-between our weather recording intervals... More about our weather records

Advertising

Moreno Valley Weather History for the Previous 24 Hours

Scroll right to see more
 ConditionsComfort  
Time TempWeatherWind HumidityBarometerVisibility
10:58 pm
Fri, Apr 28
66 °FClear.6 mph17%29.83 "Hg10 mi
9:58 pm68 °FClear.15 mph17%29.80 "Hg10 mi
8:58 pm69 °FClear.14 mph22%29.77 "Hg10 mi
7:58 pm68 °FClear.10 mph26%29.75 "Hg10 mi
6:58 pm74 °FSunny.12 mphN/A29.73 "Hg10 mi
5:58 pm78 °FSunny.9 mph20%29.70 "Hg10 mi
4:58 pm79 °FSunny.9 mph17%29.69 "Hg10 mi
3:58 pm79 °FSunny.12 mph16%29.70 "Hg10 mi
2:58 pm79 °FSunny.9 mph13%29.72 "Hg10 mi
1:58 pm79 °FSunny.16 mph11%29.74 "Hg10 mi
12:58 pm78 °FPassing clouds.20 mph13%29.74 "Hg10 mi
11:58 am78 °FSunny.28 mph12%29.76 "Hg10 mi
10:58 am76 °FSunny.21 mph14%29.76 "Hg10 mi
9:58 am73 °FSunny.21 mph17%29.75 "Hg10 mi
8:58 am68 °FSunny.16 mph28%29.76 "Hg10 mi
7:58 am61 °FSunny.9 mph42%29.78 "Hg10 mi
6:58 am51 °FSunny.No wind100%29.77 "Hg10 mi
5:58 am51 °FClear.5 mph100%29.75 "Hg10 mi
4:58 am50 °FClear.5 mph100%29.73 "Hg10 mi
3:58 am51 °FClear.6 mph100%29.73 "Hg10 mi
2:58 am53 °FClear.6 mph99%29.71 "Hg10 mi
1:58 am52 °FClear.5 mph100%29.75 "Hg10 mi
12:58 am54 °FClear.6 mph95%29.76 "Hg10 mi
Weather by CustomWeather, © 2017

See weather overviewHow to use our weather pages